Date,TemperatureHighF,TemperatureAvgF,TemperatureLowF,DewpointHighF,DewpointAvgF,DewpointLowF,HumidityHigh,HumidityAvg,HumidityLow,PressureMaxIn,PressureMinIn,WindSpeedMaxMPH,WindSpeedAvgMPH,GustSpeedMaxMPH,PrecipitationSumIn
2013-6-14,85.0,83.1,82.0,78.0,76.5,75.0,86,81,76,30.53,29.91,10,3,10,0.00
2013-6-15,87.0,83.5,81.0,79.0,76.9,74.0,88,81,71,30.03,29.92,10,4,10,0.00
2013-6-16,88.0,84.2,82.0,80.0,77.9,75.0,89,82,72,30.05,29.98,16,7,16,0.00
2013-6-17,88.0,84.7,82.0,82.0,80.0,77.0,95,86,79,30.04,29.97,26,11,26,0.00
2013-6-18,89.0,84.9,83.0,83.0,81.3,80.0,96,89,79,30.03,29.96,23,9,23,0.00
2013-6-19,89.0,85.1,82.0,82.0,80.3,75.0,94,86,74,30.06,29.95,16,7,16,0.00
2013-6-20,88.0,85.2,82.0,81.0,78.7,75.0,92,82,73,30.09,29.97,21,10,21,0.03
2013-6-21,88.0,85.2,83.0,81.0,78.3,76.0,91,81,71,30.08,29.99,24,11,25,0.00
2013-6-22,89.0,84.8,80.0,80.0,77.0,75.0,92,78,70,30.07,30.00,24,9,25,0.44
2013-6-23,89.0,84.2,79.0,81.0,78.1,73.0,93,82,69,30.09,29.99,25,9,26,0.08
2013-6-24,86.0,83.4,81.0,80.0,77.9,74.0,90,84,78,30.12,30.03,26,11,26,0.04
2013-6-25,86.0,82.6,77.0,81.0,78.0,73.0,94,86,77,30.09,30.00,26,8,26,0.47
2013-6-26,87.0,82.9,79.0,81.0,79.0,73.0,97,89,69,30.07,29.96,29,9,30,0.44
2013-6-27,87.0,83.8,80.0,81.0,79.6,76.0,95,88,81,30.04,29.94,19,7,19,0.42
2013-6-28,89.0,84.5,78.0,81.0,79.0,75.0,95,84,73,29.98,29.87,23,5,23,0.11
2013-6-29,90.0,85.0,83.0,81.0,78.7,77.0,89,82,70,29.92,29.84,22,7,23,0.00
2013-6-30,87.0,83.4,80.0,82.0,79.0,75.0,95,87,80,29.92,29.83,36,18,105,0.24
2013-7-1,83.0,81.8,78.0,79.0,77.0,74.0,95,86,78,30.00,29.85,44,20,45,0.00
2013-7-2,86.0,82.7,77.0,81.0,78.5,73.0,99,88,78,30.05,29.93,44,14,44,0.55
2013-7-3,84.0,81.9,75.0,80.0,78.2,72.0,100,89,82,30.07,29.99,38,15,38,1.63
2013-7-4,86.0,83.6,82.0,81.0,79.6,75.0,95,88,80,30.09,29.99,30,15,31,0.00
2013-7-5,84.0,82.1,78.0,81.0,78.8,75.0,99,90,80,30.09,29.99,35,15,37,0.48
2013-7-6,86.0,82.5,80.0,82.0,79.5,75.0,97,91,83,30.07,29.66,26,13,29,0.41
2013-7-7,86.0,83.7,82.0,81.0,79.0,75.0,94,86,77,30.07,29.98,33,13,34,0.00
2013-7-8,86.0,83.9,82.0,80.0,78.0,76.0,93,83,72,30.12,30.02,25,14,25,0.00
2013-7-9,87.0,83.5,81.0,79.0,76.5,74.0,90,80,73,30.14,30.04,20,7,21,0.00
2013-7-10,86.0,82.5,80.0,78.0,76.1,74.0,88,81,74,30.08,29.99,11,5,11,0.00
2013-7-11,89.0,84.2,81.0,80.0,77.4,72.0,88,81,70,30.04,29.84,12,4,13,0.00
2013-7-12,90.0,85.0,82.0,80.0,78.0,68.0,89,80,68,29.99,29.77,11,4,12,0.00
2013-7-13,87.0,83.5,81.0,81.0,78.2,73.0,91,85,76,29.98,29.89,32,10,32,0.00
2013-7-14,88.0,83.8,77.0,81.0,78.4,74.0,94,84,72,30.06,29.93,36,14,37,0.00
2013-7-15,85.0,81.6,76.0,79.0,76.4,72.0,94,85,77,30.06,29.98,29,14,31,0.55
2013-7-16,85.0,82.0,76.0,79.0,76.8,72.0,97,85,77,30.08,29.85,37,14,37,1.08
2013-7-17,82.0,80.4,77.0,78.0,76.7,73.0,98,89,82,30.08,30.00,32,13,32,0.60
2013-7-18,82.0,79.3,75.0,79.0,77.4,74.0,100,94,87,30.10,30.00,30,10,31,3.16
2013-7-19,87.0,83.3,81.0,82.0,80.7,79.0,99,92,82,30.08,30.01,21,12,21,0.05
2013-7-20,90.0,84.9,82.0,84.0,81.2,77.0,97,89,79,30.08,30.00,24,9,24,0.00
2013-7-21,87.0,84.6,82.0,82.0,80.4,76.0,93,88,81,30.12,29.80,25,9,26,0.00
2013-7-22,88.0,84.5,83.0,80.0,78.4,76.0,91,82,74,30.14,30.06,20,10,22,0.00
2013-7-23,89.0,84.6,83.0,80.0,78.1,75.0,92,82,68,30.12,30.00,18,6,18,0.00
2013-7-24,88.0,84.3,82.0,79.0,76.9,69.0,86,79,68,30.41,29.95,11,4,11,0.00
2013-7-25,86.0,83.6,81.0,77.0,75.9,64.0,84,78,71,30.22,29.94,13,5,14,0.00
2013-7-26,87.0,84.3,78.0,79.0,77.5,64.0,86,81,74,30.20,30.01,19,7,19,0.00
2013-7-27,90.0,85.3,83.0,80.0,78.4,71.0,87,80,69,30.06,29.96,16,6,16,0.00
2013-7-28,90.0,85.5,83.0,80.0,77.8,76.0,88,78,66,30.06,29.95,8,4,9,0.00
2013-7-29,89.0,85.6,83.0,81.0,78.2,75.0,88,79,73,30.12,30.00,19,6,23,0.00
2013-7-30,88.0,85.2,81.0,82.0,79.5,74.0,91,84,77,30.14,30.05,27,9,32,0.45
2013-7-31,88.0,84.4,76.0,81.0,79.3,74.0,99,85,77,30.12,29.97,29,8,29,0.37
2013-8-1,89.0,85.8,84.0,81.0,79.0,77.0,87,81,73,30.04,29.92,19,9,20,0.00
2013-8-2,91.0,86.2,83.0,80.0,78.7,76.0,86,79,68,30.06,29.92,13,4,14,0.00
2013-8-3,91.0,86.0,84.0,81.0,78.5,66.0,87,79,67,30.22,30.01,13,5,13,0.00
2013-8-4,89.0,85.2,83.0,80.0,78.1,70.0,87,80,61,30.14,30.02,11,4,11,0.00
2013-8-5,89.0,85.2,83.0,80.0,77.8,74.0,85,79,68,30.09,29.99,13,5,14,0.00
2013-8-6,87.0,84.9,79.0,82.0,79.5,76.0,99,84,79,30.03,29.92,18,7,22,0.41
2013-8-7,90.0,86.6,84.0,81.0,79.1,70.0,87,79,65,29.96,29.76,19,6,19,0.00
2013-8-8,89.0,86.0,82.0,81.0,79.2,71.0,88,81,72,29.95,29.77,34,15,36,0.02
2013-8-9,88.0,83.6,74.0,80.0,76.9,71.0,93,81,68,30.02,29.89,52,16,53,0.46
2013-8-10,86.0,83.3,78.0,82.0,79.4,74.0,99,88,74,30.07,29.98,36,15,36,0.37
2013-8-11,88.0,86.0,84.0,82.0,80.3,77.0,92,84,77,30.10,30.01,26,16,27,0.00
2013-8-12,87.0,85.3,84.0,81.0,78.7,74.0,87,81,75,30.09,29.92,23,12,23,0.00
2013-8-13,88.0,84.9,82.0,81.0,79.2,77.0,91,84,75,30.03,29.95,19,10,19,0.00
2013-8-14,89.0,85.4,80.0,81.0,78.4,76.0,95,80,69,30.01,29.91,25,11,25,0.00
2013-8-15,89.0,84.2,79.0,82.0,78.6,69.0,92,84,77,30.03,29.91,27,9,27,0.02
2013-8-16,89.0,85.5,81.0,83.0,80.5,76.0,92,85,77,30.03,29.73,34,12,35,0.00
2013-8-17,89.0,86.4,85.0,83.0,80.8,77.0,92,84,71,30.02,29.97,24,12,24,0.00
2013-8-18,86.0,86.0,86.0,80.0,80.0,80.0,82,82,82,30.03,30.00,20,20,20,0.00
2013-8-19,90.0,84.8,80.0,83.0,79.5,76.0,98,85,74,30.00,29.94,38,11,38,0.63
2013-8-20,85.0,82.5,78.0,80.0,77.2,71.0,95,85,69,30.11,29.84,36,13,37,0.24
2013-8-21,88.0,84.7,80.0,81.0,79.4,74.0,95,85,77,30.05,29.84,27,11,29,0.20
2013-8-22,89.0,85.4,81.0,83.0,80.9,77.0,94,87,79,30.00,29.58,37,16,39,0.08
2013-8-23,90.0,85.5,83.0,82.0,79.6,70.0,89,83,71,29.99,29.72,31,12,31,0.08
2013-8-24,89.0,85.8,83.0,82.0,80.0,74.0,90,84,73,30.06,29.84,24,11,24,0.00
2013-8-25,89.0,85.4,83.0,81.0,79.6,75.0,91,83,69,30.11,30.01,26,9,26,0.00
2013-8-26,85.0,81.8,75.0,80.0,77.7,74.0,100,88,78,30.09,29.99,34,8,34,3.12
2013-8-27,86.0,83.1,82.0,78.0,76.4,73.0,87,81,71,30.03,29.95,22,9,22,0.00
2013-8-28,86.0,83.2,78.0,78.0,75.1,69.0,89,77,69,30.03,29.77,18,7,18,0.19
2013-8-29,87.0,83.5,81.0,79.0,75.5,65.0,83,77,70,30.04,29.73,16,6,16,0.00
2013-8-30,88.0,83.7,81.0,79.0,76.2,71.0,86,79,70,30.04,29.92,20,4,21,0.00
2013-8-31,90.0,84.8,79.0,79.0,77.2,70.0,86,79,67,29.99,29.72,13,4,13,0.00
2013-9-1,90.0,86.0,82.0,81.0,78.5,75.0,90,79,69,30.00,29.91,19,6,19,0.00
2013-9-2,89.0,85.6,84.0,81.0,78.5,75.0,89,80,69,30.05,29.73,18,7,19,0.00
2013-9-3,88.0,83.8,78.0,81.0,78.4,73.0,93,84,72,30.02,29.68,29,7,29,0.16
2013-9-4,89.0,85.7,84.0,82.0,79.5,74.0,89,82,68,30.03,29.64,26,10,27,0.13
2013-9-5,89.0,85.4,79.0,81.0,79.8,76.0,97,84,73,30.04,29.50,35,12,40,0.41
2013-9-6,87.0,84.3,77.0,82.0,79.7,68.0,100,87,77,30.04,29.91,37,9,39,0.99
2013-9-7,86.0,82.8,72.0,81.0,77.7,71.0,100,85,71,30.00,29.86,40,10,40,1.72
2013-9-8,88.0,84.6,81.0,79.0,77.4,72.0,88,80,70,29.95,29.64,21,7,21,0.00
2013-9-9,88.0,85.0,82.0,80.0,77.8,75.0,88,80,73,29.97,29.87,20,10,23,0.00
2013-9-10,87.0,84.3,81.0,81.0,78.9,74.0,95,84,74,30.01,29.91,29,13,31,0.47
2013-9-11,87.0,82.8,77.0,81.0,78.2,72.0,100,87,76,30.06,29.91,40,14,40,1.60
2013-9-12,86.0,83.7,82.0,80.0,77.2,69.0,88,81,64,30.04,29.87,29,10,29,0.00
2013-9-13,88.0,84.6,83.0,80.0,78.0,75.0,90,81,71,29.91,29.80,16,9,18,0.00
2013-9-14,87.0,84.5,80.0,81.0,78.2,75.0,93,82,74,29.95,29.81,29,9,29,0.08
2013-9-15,88.0,84.4,80.0,82.0,79.2,74.0,94,85,76,30.01,29.89,40,13,40,0.00
2013-9-16,85.0,83.3,81.0,82.0,79.2,76.0,93,88,79,30.01,29.70,32,14,32,0.02
2013-9-17,84.0,81.6,76.0,81.0,77.9,74.0,100,89,79,30.04,29.88,38,12,38,2.77
2013-9-18,85.0,82.5,79.0,82.0,79.3,75.0,97,90,82,30.00,29.88,21,8,21,1.81
2013-9-19,86.0,83.6,82.0,81.0,78.9,77.0,92,86,80,30.00,29.92,18,7,18,0.00
2013-9-20,86.0,83.6,82.0,80.0,78.2,77.0,90,84,79,29.99,29.86,20,9,21,0.00
2013-9-21,89.0,84.3,82.0,79.0,76.6,73.0,85,78,67,30.01,29.77,22,8,23,0.00
2013-9-22,89.0,84.4,81.0,82.0,79.0,75.0,97,84,76,29.85,29.76,24,9,25,0.06
2013-9-23,88.0,84.9,79.0,83.0,81.6,76.0,99,90,84,29.93,29.81,31,15,31,0.31
2013-9-24,88.0,85.3,84.0,83.0,81.2,79.0,94,88,83,29.96,29.87,26,9,26,0.00
2013-9-25,87.0,84.8,84.0,82.0,80.9,79.0,94,89,81,29.92,29.83,20,8,20,0.00
2013-9-26,86.0,84.4,83.0,81.0,79.7,76.0,90,86,80,29.95,29.84,19,8,21,0.00
2013-9-27,85.0,82.0,77.0,82.0,78.3,71.0,100,89,73,29.93,29.85,23,8,24,1.49
2013-9-28,87.0,82.5,80.0,77.0,72.8,69.0,80,73,66,29.95,29.86,14,4,15,0.00
2013-9-29,88.0,83.7,81.0,77.0,74.9,71.0,81,76,67,29.94,29.85,17,6,17,0.00
2013-9-30,88.0,84.5,82.0,80.0,77.3,73.0,85,79,72,29.95,29.86,23,10,23,0.02
2013-10-1,88.0,84.4,78.0,82.0,78.9,75.0,100,84,75,29.97,29.90,30,11,30,0.54
2013-10-2,86.0,82.5,79.0,81.0,78.8,75.0,100,89,79,29.99,29.90,39,10,39,0.39
2013-10-3,88.0,84.2,79.0,83.0,80.0,74.0,93,88,77,30.01,29.89,36,12,38,0.65
2013-10-4,87.0,84.0,83.0,82.0,79.7,77.0,93,87,79,30.02,29.94,19,11,20,0.00
2013-10-5,86.0,83.5,83.0,79.0,76.6,73.0,86,80,73,30.01,29.90,18,10,19,0.00
2013-10-6,89.0,84.8,82.0,80.0,77.2,74.0,85,78,68,29.95,29.87,23,7,23,0.00
2013-10-7,86.0,83.9,83.0,80.0,78.7,77.0,89,85,80,29.92,29.84,21,9,21,0.00
2013-10-8,85.0,82.3,80.0,80.0,76.7,72.0,93,84,75,29.96,29.85,14,6,15,0.12
2013-10-9,85.0,82.0,80.0,78.0,73.9,69.0,87,77,68,30.00,29.91,16,5,16,0.00
2013-10-10,85.0,82.4,81.0,78.0,76.4,73.0,88,82,78,30.01,29.94,17,7,18,0.00
2013-10-11,85.0,82.5,81.0,79.0,75.0,70.0,90,79,65,30.17,29.91,18,7,18,0.00
2013-10-12,87.0,83.2,81.0,76.0,73.2,69.0,81,72,64,30.02,29.92,21,8,21,0.00
2013-10-13,82.0,80.2,74.0,76.0,72.8,70.0,97,79,68,30.04,29.95,25,7,25,0.38
2013-10-14,83.0,80.8,76.0,75.0,71.7,61.0,92,75,65,30.59,29.91,27,8,27,0.16
2013-10-15,84.0,81.7,81.0,74.0,72.5,71.0,78,74,70,29.97,29.88,17,7,19,0.00
2013-10-16,86.0,82.2,81.0,76.0,72.9,66.0,79,74,67,30.44,29.89,15,7,15,0.00
2013-10-17,85.0,82.1,80.0,76.0,73.0,63.0,80,75,69,30.39,29.89,13,5,13,0.00
2013-10-18,86.0,83.0,81.0,80.0,76.2,73.0,91,81,71,29.96,29.88,18,6,18,0.00
2013-10-19,87.0,83.9,82.0,80.0,78.4,75.0,92,84,75,29.93,29.86,29,9,30,0.02
2013-10-20,85.0,82.7,81.0,80.0,78.0,73.0,91,86,81,30.13,29.86,15,6,15,0.00
2013-10-21,88.0,83.8,81.0,80.0,78.2,76.0,90,84,73,29.99,29.91,11,3,11,0.00
2013-10-22,88.0,84.2,82.0,81.0,79.5,75.0,92,86,77,29.95,29.84,20,7,20,0.00
2013-10-23,84.0,81.9,78.0,80.0,77.4,71.0,95,87,73,30.00,29.83,27,7,29,0.36
2013-10-24,82.0,79.7,77.0,75.0,72.2,69.0,86,78,66,30.07,29.92,27,13,29,0.00
2013-10-25,81.0,79.9,79.0,73.0,70.8,67.0,82,74,63,30.14,30.04,27,12,27,0.00
2013-10-26,81.0,79.6,78.0,72.0,70.4,66.0,79,74,68,30.13,30.04,31,14,31,0.00
2013-10-27,82.0,79.9,78.0,73.0,70.2,66.0,80,73,62,30.07,29.99,23,14,24,0.00
2013-10-28,82.0,80.1,78.0,75.0,72.4,68.0,83,78,71,30.10,30.00,27,15,27,0.00
2013-10-29,82.0,79.9,79.0,74.0,71.9,69.0,83,77,70,30.15,30.05,26,15,26,0.00
2013-10-30,83.0,80.6,79.0,74.0,72.1,59.0,83,76,66,30.72,30.03,27,17,27,0.00
2013-10-31,84.0,81.2,79.0,78.0,75.2,70.0,88,82,78,30.08,29.95,26,14,27,0.00
2013-11-1,86.0,81.8,80.0,78.0,75.7,74.0,88,82,73,29.98,29.88,20,9,21,0.00
2013-11-2,86.0,80.7,77.0,78.0,75.1,70.0,92,84,73,30.04,29.84,25,8,26,0.00
2013-11-3,79.0,77.4,76.0,73.0,66.1,59.0,84,69,55,30.02,29.89,34,16,34,0.00
2013-11-4,80.0,78.2,75.0,74.0,69.0,58.0,92,74,60,30.27,29.96,31,14,32,0.00
2013-11-5,81.0,79.1,73.0,77.0,74.2,71.0,99,85,78,30.03,29.93,38,22,38,0.24
2013-11-6,82.0,80.3,79.0,79.0,76.8,75.0,92,89,86,30.01,29.92,32,20,33,0.00
2013-11-7,82.0,79.3,78.0,77.0,74.4,71.0,91,85,77,30.20,29.92,23,10,24,0.00
2013-11-8,81.0,78.8,78.0,77.0,73.7,69.0,89,85,75,30.15,29.94,27,12,27,0.00
2013-11-9,82.0,79.5,78.0,78.0,76.7,74.0,95,92,88,30.05,29.97,26,16,29,0.00
2013-11-10,81.0,79.7,78.0,79.0,77.2,75.0,96,93,85,30.07,29.99,27,14,27,0.00
2013-11-11,81.0,79.7,79.0,78.0,75.9,74.0,93,89,85,30.16,29.99,25,14,25,0.00
2013-11-12,82.0,79.5,78.0,77.0,75.1,70.0,93,87,74,30.06,29.94,26,12,29,0.00
2013-11-13,79.0,75.8,74.0,74.0,70.0,66.0,89,83,73,30.14,29.98,33,17,33,0.00
2013-11-14,78.0,75.7,74.0,72.0,69.6,67.0,85,82,78,30.14,30.05,39,24,40,0.00
2013-11-15,80.0,77.8,76.0,77.0,74.7,66.0,100,91,84,30.18,29.93,32,19,32,0.01
2013-11-16,82.0,79.2,77.0,79.0,77.5,75.0,100,95,87,30.03,29.94,40,17,40,0.35
2013-11-17,83.0,80.2,79.0,80.0,77.6,75.0,100,92,84,30.03,29.94,27,13,28,0.00
2013-11-18,82.0,79.5,78.0,78.0,76.0,74.0,95,90,82,30.04,29.91,17,7,17,0.00
2013-11-19,83.0,79.1,77.0,76.0,73.9,70.0,91,85,75,30.20,29.85,10,4,11,0.00
2013-11-20,82.0,79.2,77.0,78.0,75.3,72.0,96,88,82,30.03,29.90,16,7,16,0.00
2013-11-21,83.0,79.9,78.0,77.0,75.9,73.0,94,88,74,30.10,30.00,18,11,18,0.00
2013-11-22,81.0,79.0,78.0,78.0,75.7,56.0,94,90,82,30.29,30.01,26,12,26,0.00
2013-11-23,81.0,78.9,78.0,78.0,76.3,74.0,95,92,89,30.04,29.95,27,10,27,0.00
2013-11-24,81.0,78.2,77.0,76.0,74.2,71.0,93,88,81,30.08,29.96,29,11,29,0.00
2013-11-25,80.0,77.2,75.0,76.0,73.1,68.0,100,88,79,30.37,29.96,37,24,38,0.10
2013-11-26,83.0,79.9,74.0,80.0,76.5,72.0,100,90,83,29.98,29.79,39,18,42,1.16
2013-11-27,81.0,75.2,68.0,79.0,66.1,58.0,100,74,57,30.11,29.80,40,19,40,0.19
2013-11-28,73.0,66.6,60.0,65.0,58.7,25.0,86,76,65,30.61,30.09,37,16,37,0.00
2013-11-29,76.0,73.5,71.0,68.0,65.9,63.0,84,78,73,30.23,30.15,30,13,31,0.00
2013-11-30,75.0,73.9,72.0,72.0,69.3,65.0,92,86,74,30.20,30.09,31,16,31,0.00
2013-12-1,76.0,73.9,72.0,71.0,68.9,67.0,90,85,81,30.11,29.97,21,10,21,0.00
2013-12-2,78.0,74.5,72.0,69.0,65.9,57.0,88,75,64,29.99,29.72,13,4,13,0.00
2013-12-3,81.0,77.9,74.0,72.0,69.6,65.0,81,76,70,30.34,29.87,20,9,22,0.00
2013-12-4,82.0,79.1,77.0,76.0,73.3,71.0,95,83,74,30.04,29.92,26,13,26,0.00
2013-12-5,81.0,78.7,76.0,76.0,75.1,73.0,97,89,82,30.11,30.00,24,12,24,0.00
2013-12-6,83.0,80.0,78.0,77.0,75.0,73.0,92,85,79,30.12,30.02,26,14,28,0.00
2013-12-7,81.0,78.4,76.0,76.0,73.6,70.0,93,86,79,30.16,30.08,22,12,22,0.00
2013-12-8,82.0,78.8,77.0,76.0,74.3,71.0,97,87,76,30.14,30.05,26,16,27,0.00
2013-12-9,82.0,79.3,78.0,77.0,74.5,72.0,92,85,78,30.12,30.04,32,13,32,0.01
2013-12-10,83.0,79.0,77.0,78.0,76.4,74.0,98,92,81,30.12,30.03,21,9,22,0.06
2013-12-11,80.0,78.3,77.0,78.0,76.3,73.0,98,94,89,30.16,30.08,23,10,23,0.00
2013-12-12,78.0,76.3,73.0,77.0,73.6,62.0,98,92,69,30.20,30.10,27,14,28,0.00
2013-12-13,78.0,75.3,72.0,76.0,71.2,62.0,97,87,78,30.18,29.99,29,17,29,0.00
2013-12-14,83.0,79.8,76.0,79.0,76.4,74.0,99,90,81,30.06,29.94,27,13,27,0.00
2013-12-15,81.0,79.0,76.0,79.0,78.1,74.0,100,97,93,30.01,29.92,24,9,24,0.15
2013-12-16,73.0,70.5,69.0,69.0,66.4,62.0,91,87,82,30.16,30.07,24,12,24,0.00
2013-12-17,74.0,71.6,70.0,70.0,66.5,63.0,89,84,76,30.17,30.08,21,11,21,0.00
2013-12-18,74.0,73.1,72.0,70.0,64.6,51.0,88,76,60,30.36,30.11,26,11,26,0.00
2013-12-19,77.0,74.5,72.0,73.0,67.9,59.0,89,80,71,30.19,30.07,29,19,29,0.00
2013-12-20,80.0,77.0,74.0,77.0,75.5,70.0,100,95,88,30.10,29.95,32,16,32,2.04
2013-12-21,81.0,78.9,77.0,78.0,76.7,76.0,99,94,87,30.07,29.96,32,17,32,0.00
2013-12-22,82.0,79.2,78.0,78.0,76.7,75.0,99,93,83,30.09,30.00,31,15,32,0.00
2013-12-23,83.0,79.6,77.0,79.0,77.7,76.0,100,94,84,30.14,30.05,23,9,23,0.00
2013-12-24,77.0,73.9,70.0,77.0,72.4,66.0,100,95,87,30.18,30.09,26,12,31,0.00
2013-12-25,77.0,73.6,69.0,74.0,70.5,64.0,97,90,83,30.12,30.03,27,13,29,0.00
2013-12-26,77.0,75.6,74.0,75.0,73.7,71.0,97,94,89,30.12,30.01,26,14,26,0.00
2013-12-27,78.0,76.4,75.0,77.0,75.0,73.0,98,96,92,30.14,30.03,27,15,29,0.01
2013-12-28,80.0,78.2,74.0,78.0,76.8,73.0,100,96,91,30.11,29.96,29,16,30,0.90
2013-12-29,79.0,76.1,73.0,79.0,75.6,72.0,100,98,90,30.03,29.90,47,10,47,4.59
2013-12-30,78.0,74.0,73.0,76.0,71.1,68.0,100,91,83,30.11,29.97,23,12,25,0.00
2013-12-31,76.0,74.3,72.0,74.0,71.7,68.0,99,92,85,30.39,30.07,29,12,31,0.00
2014-1-1,80.0,77.2,75.0,78.0,76.1,72.0,100,97,91,30.12,29.99,24,12,26,0.07
2014-1-2,81.0,78.3,75.0,78.0,75.7,72.0,99,92,86,30.13,29.89,20,10,21,0.02